Regional Weather Roundup
Issued by NWS Sterling, VA

Home | Current Version | Previous Version | Text Only | Print | Product List | Glossary Off
Versions: 1 2 3 4 5 6 7 8 9 10 11 12 13 14 15 16 17 18 19 20 21 22 23 24 25 26 27 28 29 30 31 32 33 34 35 36 37 38 39 40 41 42 43 44 45 46 47 48 49 50

000
ASUS41 KLWX 180710
RWRLWX

REGIONAL WEATHER ROUNDUP
NATIONAL WEATHER SERVICE BALTIMORE MD/WASHINGTON DC
300 AM EDT SAT APR 18 2015

Note: "FAIR" indicates few or no clouds below 12,000 feet
with no significant weather and/or obstructions to visibility.
 TC=TEMPERATURE CELSIUS

 * =Non NWS site. Station does not report precipitation (e.g. rain,
    snow, etc.), thunder, or fog.

DCZ001-MDZ009-015-VAZ040>042-051-053>054-180800-
WASHINGTON METRO

CITY           SKY/WX    TMP DP  RH WIND       PRES   REMARKS
WASHINGTON NAT MOCLDY    64  57  78 CALM      29.98F
DULLES         MOCLDY    55  53  93 CALM      29.99F
ANDREWS AFB    MOCLDY    60  56  87 N6        29.97F
FT BELVOIR     MOCLDY    60  58  90 W2        29.98F
QUANTICO       CLOUDY    64  60  87 NW7       29.99F
COLLEGE PARK*  MOCLDY    57  57 100 CALM      29.98F
LEESBURG*      PTCLDY    59  55  88 N3        30.00F
MANASSAS*      MOCLDY    55  55 100 S3        29.99F
GAITHERSBURG*  PTCLDY    55  52  88 CALM      30.03F

$$

MDZ006>007-011-014-180800-
BALTIMORE METRO

CITY           SKY/WX    TMP DP  RH WIND       PRES   REMARKS
BWI AIRPORT    PTCLDY    58  55  90 W3        29.98S
MD SCIENCE CTR   N/A     64  54  69 MISG      29.98S
MARTIN STATE   PTCLDY    55  55 100 CALM      29.99F
ANNAPOLIS      PTCLDY    57  56  96 CALM      29.98S FOG
FORT MEADE*    PTCLDY    54  52  94 CALM      30.01S

$$

MDZ012-015-019>023-180800-
MARYLAND EASTERN SHORE

CITY           SKY/WX    TMP DP  RH WIND       PRES   REMARKS
OCEAN CITY     LGT RAIN  58  57  97 E6        29.96F FOG
SALISBURY      FOG       59  59 100 CALM      29.96F VSB 1/2
BAY BRIDGE AP*   N/A     55  55 100 CALM      29.98S FOG
CAMBRIDGE*     CLOUDY    59  57  94 CALM      29.96F VSB 1/2
EASTON*        FOG       60  60 100 CALM      30.01F VSB 1/4

$$

MDZ017>025-180800-
SOUTHERN MARYLAND

CITY           SKY/WX    TMP DP  RH WIND       PRES   REMARKS
PATUXENT RIVER PTCLDY    58  56  93 CALM      29.96F
ST INIGOES     PTCLDY    59  57  93 CALM      29.95F
LEONARDTOWN*     N/A     59  57  94 CALM      29.98F VSB 1/4

$$

MDZ003>005-180800-
NORTH CENTRAL MARYLAND

CITY           SKY/WX    TMP DP  RH WIND       PRES   REMARKS
FREDERICK*     PTCLDY    54  50  87 CALM      30.02F
HAGERSTOWN APT PTCLDY    58  48  69 CALM      30.01F
WESTMINSTER*   PTCLDY    57  52  82 CALM      30.00F

$$

MDZ501>502-180800-
WESTERN MARYLAND

CITY           SKY/WX    TMP DP  RH WIND       PRES   REMARKS
OAKLAND*       PTCLDY    52 N/A N/A CALM      30.06F
CUMBERLAND*    PTCLDY    54  52  94 N6        30.07F

$$

VAZ025>031-180800-
SHENANDOAH VALLEY

CITY           SKY/WX    TMP DP  RH WIND       PRES   REMARKS
WINCHESTER*    MOCLDY    55  48  76 NW6       30.01F
FRONT ROYAL*   FAIR      54  52  94 W3        30.00F
LURAY*         NOT AVBL
NEW MARKET*    NOT AVBL
STAUNTON*      CLOUDY    53  52  95 NE5       30.03F
WAYNESBORO*    NOT AVBL

$$

WVZ021-048>050-054>055-180800-
EASTERN WEST VIRGINIA PANHANDLE

CITY           SKY/WX    TMP DP  RH WIND       PRES   REMARKS
MARTINSBURG    PTCLDY    55  50  83 W3        30.00F
PETERSBURG*    NOT AVBL

$$

VAZ036>039-050-180800-
CENTRAL FOOTHILLS

CITY           SKY/WX    TMP DP  RH WIND       PRES   REMARKS
CHARLOTTESVILL PTCLDY    60  59  96 CALM      29.98F FOG
CULPEPER*      CLOUDY    63  61  94 CALM      30.00F
ORANGE*        MOCLDY    55  55 100 CALM      30.00F FOG
GORDONSVILLE*  FAIR      55  55  99 CALM      29.98F
WARRENTON*     CLOUDY    57  57 100 CALM      29.99F

$$

VAZ055>057-180800-
NORTH AND CENTRAL PIEDMONT

CITY           SKY/WX    TMP DP  RH WIND       PRES   REMARKS
FREDERICKSBRG* MOCLDY    63  63 100 NW3       29.97F
STAFFORD*      MOCLDY    62  32  32 N7        30.02F

$$

NCZ024-NYZ072-PAZ021-071-VAZ022-071-180800-
OTHER REGIONAL OBSERVATIONS

CITY           SKY/WX    TMP DP  RH WIND       PRES   REMARKS
NEW YORK CITY  PTCLDY    61  45  55 CALM      29.99F
PHILADELPHIA   PTCLDY    57  54  89 CALM      29.98R
PITTSBURGH     PTCLDY    50  45  83 CALM      30.02F
ROANOKE        CLEAR     59  55  87 W6        30.02S
RICHMOND       MOCLDY    63  61  93 CALM      29.97F
RALEIGH        CLOUDY    64  61  90 CALM      29.99S

$$

ANZ530>537-180800-
MARINE OBSERVATIONS

STATION/POSITION TIME  TEMP    WIND        PRES
                       AIR SEA DIR/SP/G
                 (UTC) (F)     (DEG/KT/KT) (MB)
THOMAS PT LIGHT  0700   62 52  340/  6/  6 1015.6F
BALT KEY BRIDGE  0600   63     300/  4/  4 1015.2F
COVE POINT       0600   59     190/  5/  6 1014.7F
LEWISETTA        0600   64 60              1014.3F
SOLOMONS ISLAND  0624      54                N/A
PINEY POINT      0612          330/  5/  5   N/A

$$



USA.gov is the U.S. government's official web portal to all federal, state and local government web resources and services.